EXS14VP LGIR-EGSS

Flight info

Callsign EXS14VP
Flight time 4h 0m
Altitude 38000
Route EPALO UM749 ATV DCT LUSES DCT BITLA DCT MAVAR DCT GACMO/N0436F320 DCT EMKES DCT MONID DCT TUPUS DCT NEMEK DCT VEKEN DCT UMVEG DCT KPT DCT VEKIR DCT ADENU L608 LIRSU DCT SPI DCT NIK DCT KOZUF DCT IMPOH DCT SASKI L608 SUMUM Y6 TOSVA
Aircraft B738/M-SDE2E3FGHIRWXY/LB1

Departure

Time 2026-05-04 17:43
Airport Heraklion International Nikos Kazantzakis Airport (LGIR)

Arrival

Time 2026-05-04 21:44
Airport London Stansted Airport (EGSS)
Time Latitude Longitude Altitude Speed Heading
2026-05-04 17:28 35.33806 25.17421 84 ft 0 kts 274°
2026-05-04 17:34 35.33803 25.17451 85 ft 4 kts 286°
2026-05-04 17:34 35.33792 25.17480 87 ft 4 kts 318°
2026-05-04 17:35 35.33770 25.17491 88 ft 0 kts
2026-05-04 17:37 35.33771 25.17491 88 ft 1 kts
2026-05-04 17:37 35.33806 25.17496 89 ft 6 kts
2026-05-04 17:38 35.33850 25.17500 87 ft 6 kts
2026-05-04 17:38 35.33897 25.17501 89 ft 7 kts 343°
2026-05-04 17:38 35.33917 25.17443 85 ft 9 kts 278°
2026-05-04 17:38 35.33891 25.17389 85 ft 8 kts 204°
2026-05-04 17:39 35.33871 25.17478 85 ft 9 kts 38°
2026-05-04 17:39 35.33911 25.17569 92 ft 15 kts 84°
2026-05-04 17:39 35.33897 25.17723 94 ft 19 kts 94°
2026-05-04 17:40 35.33886 25.17883 97 ft 19 kts 95°
2026-05-04 17:40 35.33875 25.18038 99 ft 18 kts 95°
2026-05-04 17:40 35.33873 25.18071 100 ft 18 kts 95°
2026-05-04 17:40 35.33862 25.18220 103 ft 17 kts 95°
2026-05-04 17:41 35.33852 25.18366 105 ft 17 kts 95°
2026-05-04 17:41 35.33843 25.18502 107 ft 16 kts 94°
2026-05-04 17:41 35.33838 25.18592 109 ft 15 kts 94°
2026-05-04 17:41 35.33829 25.18721 112 ft 15 kts 95°
2026-05-04 17:42 35.33820 25.18844 115 ft 14 kts 95°
2026-05-04 17:42 35.33835 25.18957 114 ft 14 kts 56°
2026-05-04 17:42 35.33902 25.18988 115 ft 13 kts 302°
2026-05-04 17:42 35.33917 25.18870 114 ft 22 kts 275°
2026-05-04 17:43 35.33947 25.18422 103 ft 84 kts 275°
2026-05-04 17:43 35.34011 25.17477 90 ft 137 kts 275°
2026-05-04 17:43 35.34121 25.16196 350 ft 156 kts 278°
2026-05-04 17:43 35.34279 25.14851 931 ft 159 kts 290°
2026-05-04 17:44 35.34986 25.13828 1466 ft 165 kts 333°
2026-05-04 17:44 35.36090 25.13377 2099 ft 167 kts 341°
2026-05-04 17:44 35.37202 25.13016 2797 ft 163 kts 341°
2026-05-04 17:44 35.38315 25.12653 3364 ft 167 kts 341°
2026-05-04 17:45 35.39441 25.12281 3859 ft 167 kts 342°
2026-05-04 17:45 35.40601 25.11893 4139 ft 183 kts 342°
2026-05-04 17:45 35.41868 25.11463 4423 ft 195 kts 343°
2026-05-04 17:45 35.43197 25.11009 4692 ft 206 kts 343°
2026-05-04 17:46 35.44628 25.10516 4959 ft 220 kts 343°
2026-05-04 17:46 35.46162 25.09984 5216 ft 238 kts 343°
2026-05-04 17:46 35.47815 25.09408 5509 ft 255 kts 343°
2026-05-04 17:46 35.49572 25.08793 5808 ft 270 kts 343°
2026-05-04 17:47 35.51394 25.08154 5994 ft 274 kts 343°
2026-05-04 17:47 35.53228 25.07509 5995 ft 274 kts 343°
2026-05-04 17:47 35.55062 25.06862 5984 ft 273 kts 343°
2026-05-04 17:47 35.56870 25.06224 6391 ft 265 kts 343°
2026-05-04 17:48 35.58587 25.05618 7475 ft 249 kts 343°
2026-05-04 17:48 35.60262 25.05024 8082 ft 258 kts 343°
2026-05-04 17:48 35.62061 25.04386 8244 ft 279 kts 343°
2026-05-04 17:48 35.63972 25.03708 8682 ft 289 kts 343°
2026-05-04 17:49 35.65923 25.03016 9292 ft 294 kts 343°
2026-05-04 17:49 35.67896 25.02316 9935 ft 297 kts 343°
2026-05-04 17:49 35.69874 25.01614 10476 ft 302 kts 343°
2026-05-04 17:49 35.71935 25.00873 11029 ft 306 kts 342°
2026-05-04 17:50 35.73932 25.00005 11589 ft 310 kts 340°
2026-05-04 17:50 35.75956 24.99043 12200 ft 314 kts 339°
2026-05-04 17:50 35.78008 24.98055 12806 ft 317 kts 339°
2026-05-04 17:50 35.80087 24.97057 13252 ft 328 kts 339°
2026-05-04 17:51 35.82269 24.96017 13377 ft 346 kts 339°
2026-05-04 17:51 35.84576 24.94924 13519 ft 363 kts 339°
2026-05-04 17:51 35.86975 24.93790 13852 ft 373 kts 339°
2026-05-04 17:51 35.89418 24.92638 14372 ft 376 kts 339°
2026-05-04 17:52 35.91866 24.91484 14978 ft 377 kts 340°
2026-05-04 17:52 35.94301 24.90263 15568 ft 379 kts 335°
2026-05-04 17:52 35.96619 24.88818 16131 ft 382 kts 333°
2026-05-04 17:52 35.98158 24.87787 16361 ft 388 kts 332°
2026-05-04 17:53 36.00128 24.86432 16752 ft 392 kts 332°
2026-05-04 17:53 36.02517 24.84779 17292 ft 394 kts 332°
2026-05-04 17:53 36.04919 24.83125 17836 ft 397 kts 332°
2026-05-04 17:54 36.07347 24.81468 18352 ft 400 kts 332°
2026-05-04 17:54 36.09800 24.79807 18821 ft 402 kts 333°
2026-05-04 17:54 36.12258 24.78152 19365 ft 402 kts 333°
2026-05-04 17:54 36.14718 24.76500 19902 ft 402 kts 332°
2026-05-04 17:55 36.17149 24.74870 20399 ft 403 kts 332°
2026-05-04 17:55 36.19626 24.73211 20885 ft 404 kts 332°
2026-05-04 17:55 36.22109 24.71548 21349 ft 405 kts 332°
2026-05-04 17:55 36.24587 24.69888 21766 ft 408 kts 332°
2026-05-04 17:56 36.27095 24.68206 21976 ft 415 kts 332°
2026-05-04 17:56 36.29658 24.66485 22363 ft 417 kts 332°
2026-05-04 17:56 36.32214 24.64768 22834 ft 418 kts 332°
2026-05-04 17:56 36.34768 24.63051 23267 ft 419 kts 332°
2026-05-04 17:57 36.37344 24.61318 23651 ft 421 kts 332°
2026-05-04 17:57 36.39928 24.59578 23975 ft 423 kts 332°
2026-05-04 17:57 36.42513 24.57836 24349 ft 422 kts 332°
2026-05-04 17:57 36.45092 24.56097 24736 ft 422 kts 332°
2026-05-04 17:58 36.47677 24.54352 25093 ft 422 kts 332°
2026-05-04 17:58 36.50262 24.52606 25434 ft 423 kts 332°
2026-05-04 17:58 36.52877 24.50838 25447 ft 433 kts 332°
2026-05-04 17:58 36.55545 24.49035 25578 ft 438 kts 332°
2026-05-04 17:59 36.58235 24.47213 25896 ft 438 kts 332°
2026-05-04 17:59 36.60905 24.45404 26267 ft 437 kts 332°
2026-05-04 17:59 36.66241 24.41784 27059 ft 434 kts 332°
2026-05-04 18:00 36.68888 24.39985 27562 ft 430 kts 332°
2026-05-04 18:00 36.71471 24.38230 28072 ft 425 kts 332°
2026-05-04 18:00 36.73979 24.36526 29600 ft 395 kts 331°
2026-05-04 18:00 36.76340 24.34918 30654 ft 381 kts 331°
2026-05-04 18:01 36.78679 24.33324 30826 ft 386 kts 332°
2026-05-04 18:01 36.83463 24.30061 30941 ft 398 kts 332°
2026-05-04 18:02 36.88385 24.26700 31170 ft 406 kts 332°
2026-05-04 18:02 36.90868 24.25003 31434 ft 405 kts 332°
2026-05-04 18:02 36.93334 24.23316 31854 ft 401 kts 331°
2026-05-04 18:02 36.94700 24.22380 32094 ft 399 kts 331°
2026-05-04 18:03 36.95055 24.22137 32161 ft 398 kts 331°
2026-05-04 18:03 36.97474 24.20480 32568 ft 394 kts 331°
2026-05-04 18:03 36.99868 24.18838 32882 ft 393 kts 331°
2026-05-04 18:04 37.02268 24.17192 33164 ft 392 kts 331°
2026-05-04 18:04 37.04661 24.15549 33304 ft 395 kts 331°
2026-05-04 18:04 37.09518 24.12211 33754 ft 394 kts 331°
2026-05-04 18:05 37.11897 24.10574 34265 ft 387 kts 331°
2026-05-04 18:05 37.14249 24.08955 34579 ft 384 kts 331°
2026-05-04 18:05 37.16610 24.07328 34625 ft 388 kts 331°
2026-05-04 18:06 37.23717 24.02424 35138 ft 388 kts 330°
2026-05-04 18:06 37.26090 24.00784 35239 ft 390 kts 330°
2026-05-04 18:06 37.28478 23.99132 35315 ft 392 kts 330°
2026-05-04 18:07 37.33297 23.95796 35493 ft 396 kts 330°
2026-05-04 18:07 37.35708 23.94125 35685 ft 395 kts 330°
2026-05-04 18:07 37.38094 23.92471 35848 ft 395 kts 330°
2026-05-04 18:08 37.40506 23.90796 35964 ft 396 kts 330°
2026-05-04 18:08 37.42928 23.89114 36087 ft 397 kts 330°
2026-05-04 18:08 37.47791 23.85732 36113 ft 399 kts 330°
2026-05-04 18:09 37.57450 23.79000 36127 ft 394 kts 330°
2026-05-04 18:10 37.62217 23.75671 36129 ft 393 kts 330°
2026-05-04 18:10 37.67004 23.72323 36118 ft 393 kts 330°
2026-05-04 18:11 37.71778 23.68978 36126 ft 393 kts 330°
2026-05-04 18:11 37.76562 23.65621 36129 ft 393 kts 330°
2026-05-04 18:12 37.81351 23.62256 36139 ft 395 kts 330°
2026-05-04 18:12 37.84909 23.59752 36142 ft 398 kts 330°
2026-05-04 18:13 37.85966 23.59008 36140 ft 400 kts 330°
2026-05-04 18:14 37.93279 23.53853 36137 ft 404 kts 330°
2026-05-04 18:14 37.98223 23.50360 36130 ft 407 kts 330°
2026-05-04 18:15 38.08028 23.43419 36127 ft 397 kts 330°
2026-05-04 18:16 38.12856 23.39992 36128 ft 397 kts 330°
2026-05-04 18:16 38.17666 23.36573 36130 ft 396 kts 330°
2026-05-04 18:17 38.24865 23.31447 36130 ft 397 kts 330°
2026-05-04 18:18 38.32077 23.26300 36140 ft 398 kts 330°
2026-05-04 18:18 38.36911 23.22843 36130 ft 399 kts 330°
2026-05-04 18:19 38.43389 23.18201 36135 ft 399 kts 330°
2026-05-04 18:19 38.48243 23.14718 36135 ft 400 kts 330°
2026-05-04 18:20 38.53068 23.11250 36139 ft 401 kts 330°
2026-05-04 18:20 38.57927 23.07751 36126 ft 401 kts 330°
2026-05-04 18:21 38.62786 23.04247 36145 ft 401 kts 330°
2026-05-04 18:21 38.67664 23.00725 36128 ft 402 kts 330°
2026-05-04 18:22 38.72533 22.97203 36135 ft 402 kts 330°
2026-05-04 18:22 38.76716 22.94172 36130 ft 402 kts 330°
2026-05-04 18:23 38.77158 22.93852 36127 ft 402 kts 330°
2026-05-04 18:23 38.82025 22.90321 36137 ft 402 kts 330°
2026-05-04 18:24 38.86902 22.86776 36130 ft 402 kts 330°
2026-05-04 18:24 38.91768 22.83235 36125 ft 402 kts 330°
2026-05-04 18:25 38.96633 22.79688 36120 ft 402 kts 330°
2026-05-04 18:25 39.01490 22.76141 36114 ft 401 kts 330°
2026-05-04 18:26 39.06347 22.72589 36106 ft 401 kts 330°
2026-05-04 18:26 39.11201 22.69033 36116 ft 401 kts 330°
2026-05-04 18:27 39.16062 22.65467 36110 ft 402 kts 330°
2026-05-04 18:27 39.20918 22.61898 36104 ft 402 kts 330°
2026-05-04 18:28 39.25752 22.58339 36111 ft 402 kts 330°
2026-05-04 18:28 39.30636 22.54738 36112 ft 402 kts 330°
2026-05-04 18:29 39.35471 22.51168 36115 ft 403 kts 330°
2026-05-04 18:29 39.40369 22.47545 36122 ft 403 kts 330°
2026-05-04 18:30 39.47638 22.42158 36103 ft 403 kts 330°
2026-05-04 18:31 39.52509 22.38540 36118 ft 403 kts 330°
2026-05-04 18:31 39.57384 22.34914 36122 ft 404 kts 330°
2026-05-04 18:32 39.62262 22.31279 36127 ft 404 kts 330°
2026-05-04 18:32 39.67146 22.27634 36115 ft 405 kts 330°
2026-05-04 18:33 39.68722 22.26456 36119 ft 406 kts 330°
2026-05-04 18:33 39.71659 22.24259 36130 ft 406 kts 330°
2026-05-04 18:34 39.76568 22.20584 36121 ft 407 kts 330°
2026-05-04 18:34 39.81481 22.16900 36125 ft 408 kts 330°
2026-05-04 18:35 39.86403 22.13203 36125 ft 408 kts 330°
2026-05-04 18:35 39.91292 22.09524 36115 ft 408 kts 330°
2026-05-04 18:36 39.96207 22.05819 36119 ft 408 kts 330°
2026-05-04 18:36 40.01129 22.02103 36113 ft 408 kts 330°
2026-05-04 18:37 40.06014 21.98410 36179 ft 405 kts 330°
2026-05-04 18:37 40.10906 21.94703 36133 ft 408 kts 330°
2026-05-04 18:38 40.15825 21.90970 36133 ft 410 kts 330°
2026-05-04 18:38 40.20767 21.87214 36125 ft 411 kts 330°
2026-05-04 18:39 40.25710 21.83451 36130 ft 411 kts 330°
2026-05-04 18:39 40.30661 21.79675 36133 ft 411 kts 330°
2026-05-04 18:40 40.35597 21.75903 36127 ft 410 kts 330°
2026-05-04 18:40 40.40530 21.72128 36127 ft 410 kts 330°
2026-05-04 18:41 40.45448 21.68358 36131 ft 409 kts 330°
2026-05-04 18:41 40.50352 21.64592 36117 ft 408 kts 330°
2026-05-04 18:42 40.55245 21.60828 36124 ft 407 kts 330°
2026-05-04 18:42 40.60096 21.57090 36119 ft 406 kts 330°
2026-05-04 18:43 40.61449 21.56045 36117 ft 406 kts 330°
2026-05-04 18:43 40.64457 21.53714 36122 ft 405 kts 329°
2026-05-04 18:44 40.68828 21.49103 36133 ft 406 kts 320°
2026-05-04 18:44 40.73101 21.44136 36120 ft 407 kts 320°
2026-05-04 18:45 40.77368 21.39234 36125 ft 407 kts 321°
2026-05-04 18:45 40.81659 21.34335 36126 ft 407 kts 321°
2026-05-04 18:46 40.85959 21.29430 36119 ft 409 kts 321°
2026-05-04 18:46 40.90260 21.24517 36127 ft 409 kts 321°
2026-05-04 18:47 40.94580 21.19575 36121 ft 411 kts 321°
2026-05-04 18:47 40.98908 21.14613 36129 ft 411 kts 321°
2026-05-04 18:48 41.03232 21.09647 36118 ft 412 kts 321°
2026-05-04 18:48 41.07563 21.04664 36118 ft 412 kts 321°
2026-05-04 18:49 41.11891 20.99675 36117 ft 412 kts 321°
2026-05-04 18:49 41.16184 20.94717 36122 ft 411 kts 320°
2026-05-04 18:50 41.20498 20.89726 36135 ft 411 kts 320°
2026-05-04 18:50 41.24832 20.84704 36122 ft 410 kts 320°
2026-05-04 18:51 41.29106 20.79741 36113 ft 410 kts 320°
2026-05-04 18:51 41.33404 20.74742 36121 ft 410 kts 320°
2026-05-04 18:52 41.37693 20.69744 36137 ft 410 kts 320°
2026-05-04 18:52 41.41985 20.64733 36140 ft 410 kts 320°
2026-05-04 18:53 41.42926 20.63634 36143 ft 410 kts 320°
2026-05-04 18:53 41.46005 20.60032 36150 ft 410 kts 320°
2026-05-04 18:54 41.49567 20.55860 36148 ft 410 kts 320°
2026-05-04 18:54 41.53853 20.50832 36144 ft 410 kts 320°
2026-05-04 18:55 41.58151 20.45779 36127 ft 411 kts 320°
2026-05-04 18:55 41.64599 20.38182 36157 ft 413 kts 320°
2026-05-04 18:56 41.68915 20.33084 36150 ft 414 kts 320°
2026-05-04 18:56 41.73241 20.27966 36148 ft 416 kts 320°
2026-05-04 18:57 41.77578 20.22826 36146 ft 417 kts 320°
2026-05-04 18:57 41.81934 20.17652 36154 ft 418 kts 320°
2026-05-04 18:58 41.86284 20.12476 36147 ft 418 kts 319°
2026-05-04 18:58 41.90630 20.07295 36134 ft 418 kts 319°
2026-05-04 18:59 41.94972 20.02109 36139 ft 417 kts 319°
2026-05-04 18:59 41.99262 19.96975 36143 ft 415 kts 319°
2026-05-04 19:00 42.03588 19.91776 36133 ft 413 kts 319°
2026-05-04 19:00 42.07878 19.86628 36145 ft 412 kts 319°
2026-05-04 19:01 42.12155 19.81486 36137 ft 411 kts 320°
2026-05-04 19:01 42.16404 19.76365 36135 ft 410 kts 319°
2026-05-04 19:02 42.20654 19.71231 36143 ft 410 kts 319°
2026-05-04 19:02 42.24190 19.66952 36148 ft 410 kts 319°
2026-05-04 19:03 42.24594 19.66462 36154 ft 410 kts 319°
2026-05-04 19:03 42.28844 19.61310 36144 ft 410 kts 319°
2026-05-04 19:04 42.33093 19.56156 36131 ft 412 kts 319°
2026-05-04 19:04 42.37358 19.50962 36121 ft 413 kts 319°
2026-05-04 19:05 42.41638 19.45741 36103 ft 415 kts 319°
2026-05-04 19:05 42.45929 19.40498 36107 ft 416 kts 319°
2026-05-04 19:06 42.50225 19.35240 36104 ft 417 kts 319°
2026-05-04 19:06 42.54530 19.29959 36106 ft 416 kts 319°
2026-05-04 19:07 42.58791 19.24723 36109 ft 415 kts 319°
2026-05-04 19:07 42.63069 19.19456 36128 ft 414 kts 319°
2026-05-04 19:08 42.67334 19.14195 36135 ft 413 kts 319°
2026-05-04 19:08 42.71594 19.08930 36120 ft 414 kts 319°
2026-05-04 19:09 42.75853 19.03655 36127 ft 413 kts 319°
2026-05-04 19:09 42.80119 18.98363 36122 ft 413 kts 319°
2026-05-04 19:10 42.84342 18.93113 36136 ft 412 kts 319°
2026-05-04 19:10 42.88577 18.87837 36137 ft 411 kts 319°
2026-05-04 19:11 42.92792 18.82577 36130 ft 411 kts 319°
2026-05-04 19:11 42.97013 18.77302 36107 ft 409 kts 319°
2026-05-04 19:12 43.03284 18.69442 36127 ft 412 kts 319°
2026-05-04 19:13 43.04543 18.67860 36128 ft 413 kts 319°
2026-05-04 19:13 43.07379 18.64296 36135 ft 415 kts 319°
2026-05-04 19:14 43.11652 18.58915 36136 ft 417 kts 319°
2026-05-04 19:14 43.15901 18.53555 36129 ft 418 kts 319°
2026-05-04 19:15 43.20183 18.48143 36127 ft 418 kts 319°
2026-05-04 19:15 43.24449 18.42738 36262 ft 416 kts 320°
2026-05-04 19:16 43.28649 18.37402 36132 ft 405 kts 320°
2026-05-04 19:16 43.32756 18.32182 36131 ft 401 kts 320°
2026-05-04 19:17 43.36843 18.26978 36134 ft 400 kts 320°
2026-05-04 19:17 43.40926 18.21770 36132 ft 400 kts 320°
2026-05-04 19:18 43.44986 18.16579 36140 ft 402 kts 320°
2026-05-04 19:18 43.49096 18.11315 36136 ft 404 kts 320°
2026-05-04 19:19 43.53229 18.06010 36126 ft 407 kts 320°
2026-05-04 19:19 43.57380 18.00669 36108 ft 408 kts 320°
2026-05-04 19:20 43.61535 17.95313 36110 ft 410 kts 320°
2026-05-04 19:20 43.65707 17.89925 36120 ft 411 kts 320°
2026-05-04 19:21 43.69895 17.84506 36107 ft 412 kts 320°
2026-05-04 19:21 43.74079 17.79080 36113 ft 411 kts 320°
2026-05-04 19:22 43.78237 17.73677 36116 ft 409 kts 320°
2026-05-04 19:22 43.82383 17.68279 36122 ft 408 kts 320°
2026-05-04 19:23 43.83395 17.66960 36125 ft 407 kts 320°
2026-05-04 19:23 43.86213 17.63283 36117 ft 407 kts 320°
2026-05-04 19:24 43.90328 17.57906 36120 ft 407 kts 320°
2026-05-04 19:24 43.94454 17.52504 36110 ft 406 kts 320°
2026-05-04 19:25 43.98561 17.47115 36121 ft 406 kts 320°
2026-05-04 19:25 44.02668 17.41716 36125 ft 406 kts 320°
2026-05-04 19:26 44.06774 17.36307 36118 ft 407 kts 320°
2026-05-04 19:26 44.10888 17.30876 36131 ft 407 kts 319°
2026-05-04 19:27 44.14993 17.25446 36114 ft 407 kts 320°
2026-05-04 19:27 44.19098 17.20007 36114 ft 407 kts 319°
2026-05-04 19:28 44.23184 17.14580 36112 ft 407 kts 319°
2026-05-04 19:28 44.27282 17.09126 36120 ft 408 kts 319°
2026-05-04 19:29 44.31391 17.03647 36109 ft 408 kts 319°
2026-05-04 19:29 44.35500 16.98158 36094 ft 408 kts 319°
2026-05-04 19:30 44.39593 16.92677 36105 ft 407 kts 319°
2026-05-04 19:30 44.43669 16.87208 36115 ft 408 kts 319°
2026-05-04 19:31 44.47764 16.81704 36097 ft 408 kts 319°
2026-05-04 19:31 44.51863 16.76183 36092 ft 409 kts 318°
2026-05-04 19:32 44.55292 16.71553 36111 ft 409 kts 319°
2026-05-04 19:32 44.59366 16.66045 36110 ft 409 kts 319°
2026-05-04 19:33 44.60895 16.63975 36115 ft 410 kts 319°
2026-05-04 19:33 44.63428 16.60541 36095 ft 410 kts 319°
2026-05-04 19:34 44.67527 16.54975 36113 ft 410 kts 319°
2026-05-04 19:34 44.71660 16.49352 36088 ft 411 kts 318°
2026-05-04 19:35 44.75747 16.43780 36087 ft 411 kts 317°
2026-05-04 19:35 44.79840 16.38187 36103 ft 411 kts 317°
2026-05-04 19:36 44.83955 16.32554 36090 ft 412 kts 317°
2026-05-04 19:36 44.88067 16.26912 36094 ft 413 kts 317°
2026-05-04 19:37 44.92175 16.21264 36076 ft 413 kts 317°
2026-05-04 19:37 44.96308 16.15569 36078 ft 414 kts 317°
2026-05-04 19:38 45.00410 16.09904 36083 ft 414 kts 317°
2026-05-04 19:38 45.04536 16.04196 36078 ft 415 kts 317°
2026-05-04 19:39 45.08666 15.98469 36082 ft 416 kts 317°
2026-05-04 19:39 45.12799 15.92726 36061 ft 416 kts 316°
2026-05-04 19:40 45.16935 15.86965 36068 ft 416 kts 316°
2026-05-04 19:40 45.21069 15.81195 36076 ft 416 kts 316°
2026-05-04 19:41 45.25191 15.75431 36073 ft 416 kts 316°
2026-05-04 19:41 45.29305 15.69664 36082 ft 416 kts 316°
2026-05-04 19:42 45.33425 15.63877 36067 ft 416 kts 314°
2026-05-04 19:42 45.37549 15.58071 36082 ft 417 kts 313°
2026-05-04 19:43 45.38871 15.56207 36081 ft 418 kts 313°
2026-05-04 19:43 45.41452 15.52564 36099 ft 420 kts 313°
2026-05-04 19:44 45.45616 15.46677 36093 ft 423 kts 313°
2026-05-04 19:44 45.49803 15.40743 36093 ft 426 kts 313°
2026-05-04 19:45 45.54018 15.34758 36093 ft 428 kts 313°
2026-05-04 19:45 45.58176 15.28730 36092 ft 429 kts 309°
2026-05-04 19:46 45.61841 15.21946 36092 ft 429 kts 305°
2026-05-04 19:46 45.65364 15.15135 36090 ft 428 kts 305°
2026-05-04 19:47 45.68934 15.08300 36095 ft 427 kts 305°
2026-05-04 19:47 45.72515 15.01501 36097 ft 426 kts 305°
2026-05-04 19:48 45.76059 14.94777 36100 ft 425 kts 305°
2026-05-04 19:48 45.79633 14.87984 36097 ft 424 kts 305°
2026-05-04 19:49 45.83155 14.81273 36105 ft 423 kts 305°
2026-05-04 19:49 45.86705 14.74491 36103 ft 422 kts 305°
2026-05-04 19:50 45.90203 14.67793 36108 ft 422 kts 305°
2026-05-04 19:50 45.93720 14.61040 36109 ft 422 kts 305°
2026-05-04 19:51 45.97241 14.54265 36103 ft 422 kts 305°
2026-05-04 19:51 46.00752 14.47491 36099 ft 423 kts 305°
2026-05-04 19:52 46.04273 14.40683 36097 ft 424 kts 304°
2026-05-04 19:52 46.07798 14.33851 36092 ft 425 kts 304°
2026-05-04 19:53 46.08782 14.31941 36093 ft 425 kts 304°
2026-05-04 19:53 46.11034 14.27564 36095 ft 426 kts 304°
2026-05-04 19:54 46.14570 14.20678 36092 ft 427 kts 304°
2026-05-04 19:54 46.18108 14.13771 36095 ft 428 kts 304°
2026-05-04 19:55 46.21670 14.06801 36103 ft 429 kts 304°
2026-05-04 19:55 46.25191 13.99892 36108 ft 430 kts 304°
2026-05-04 19:56 46.28754 13.92882 36267 ft 434 kts 304°
2026-05-04 19:56 46.30542 13.89359 36504 ft 433 kts 304°
2026-05-04 19:56 46.32324 13.85845 36774 ft 430 kts 304°
2026-05-04 19:56 46.34092 13.82354 36993 ft 430 kts 304°
2026-05-04 19:57 46.35862 13.78853 37101 ft 431 kts 304°
2026-05-04 19:57 46.37646 13.75319 37309 ft 431 kts 304°
2026-05-04 19:57 46.39413 13.71819 37631 ft 426 kts 304°
2026-05-04 19:57 46.41156 13.68358 37902 ft 424 kts 304°
2026-05-04 19:58 46.42894 13.64901 38026 ft 423 kts 304°
2026-05-04 19:58 46.46402 13.57914 38092 ft 426 kts 304°
2026-05-04 19:59 46.49868 13.50991 38104 ft 426 kts 304°
2026-05-04 19:59 46.53360 13.44004 38085 ft 428 kts 304°
2026-05-04 20:00 46.56851 13.36995 38087 ft 428 kts 303°
2026-05-04 20:00 46.60150 13.29791 38104 ft 427 kts 301°
2026-05-04 20:01 46.63345 13.22509 38101 ft 427 kts 300°
2026-05-04 20:01 46.66554 13.15226 38103 ft 427 kts 301°
2026-05-04 20:02 46.69778 13.07955 38103 ft 427 kts 301°
2026-05-04 20:02 46.72988 13.00718 38095 ft 427 kts 301°
2026-05-04 20:03 46.73699 12.99112 38093 ft 427 kts 301°
2026-05-04 20:03 46.75915 12.94104 38098 ft 426 kts 301°
2026-05-04 20:04 46.79122 12.86842 38096 ft 425 kts 301°
2026-05-04 20:04 46.82295 12.79637 38083 ft 424 kts 300°
2026-05-04 20:05 46.84962 12.73566 38096 ft 423 kts 300°
2026-05-04 20:05 46.88140 12.66312 38080 ft 424 kts 300°
2026-05-04 20:06 46.91317 12.59040 38097 ft 423 kts 300°
2026-05-04 20:06 46.94486 12.51771 38077 ft 424 kts 300°
2026-05-04 20:07 46.97635 12.44527 38063 ft 424 kts 300°
2026-05-04 20:07 47.00805 12.37215 38063 ft 425 kts 300°
2026-05-04 20:08 47.03976 12.29883 38051 ft 425 kts 300°
2026-05-04 20:08 47.07154 12.22514 38068 ft 424 kts 299°
2026-05-04 20:09 47.10294 12.15212 38057 ft 425 kts 298°
2026-05-04 20:09 47.13456 12.07848 38047 ft 426 kts 299°
2026-05-04 20:10 47.16617 12.00451 38027 ft 427 kts 300°
2026-05-04 20:10 47.19773 11.93057 38011 ft 427 kts 299°
2026-05-04 20:11 47.22792 11.85545 38017 ft 426 kts 295°
2026-05-04 20:11 47.25510 11.77807 38012 ft 425 kts 294°
2026-05-04 20:12 47.28186 11.70064 38013 ft 426 kts 295°
2026-05-04 20:12 47.30900 11.62288 37998 ft 427 kts 294°
2026-05-04 20:13 47.31828 11.59638 37997 ft 427 kts 294°
2026-05-04 20:13 47.33506 11.54852 38000 ft 428 kts 294°
2026-05-04 20:14 47.36263 11.46984 37998 ft 428 kts 294°
2026-05-04 20:14 47.38988 11.39183 37990 ft 428 kts 294°
2026-05-04 20:15 47.41712 11.31363 37989 ft 428 kts 294°
2026-05-04 20:15 47.44411 11.23590 37983 ft 427 kts 294°
2026-05-04 20:16 47.47120 11.15762 38004 ft 427 kts 294°
2026-05-04 20:16 47.49819 11.07940 37994 ft 426 kts 294°
2026-05-04 20:17 47.52504 11.00138 38032 ft 425 kts 294°
2026-05-04 20:17 47.55177 10.92344 38070 ft 424 kts 294°
2026-05-04 20:18 47.57841 10.84554 38066 ft 424 kts 294°
2026-05-04 20:18 47.60505 10.76739 38051 ft 424 kts 294°
2026-05-04 20:19 47.63168 10.68906 38037 ft 424 kts 293°
2026-05-04 20:19 47.65822 10.61075 38027 ft 425 kts 293°
2026-05-04 20:20 47.68474 10.53225 38039 ft 425 kts 293°
2026-05-04 20:20 47.71108 10.45408 38027 ft 426 kts 293°
2026-05-04 20:21 47.74029 10.37587 37992 ft 433 kts 308°
2026-05-04 20:21 47.76318 10.34658 38065 ft 439 kts 325°
2026-05-04 20:21 47.82110 10.31498 38049 ft 447 kts 341°
2026-05-04 20:22 47.88124 10.28934 37993 ft 450 kts 340°
2026-05-04 20:22 47.92742 10.26906 38001 ft 451 kts 340°
2026-05-04 20:23 47.93599 10.26526 37997 ft 451 kts 340°
2026-05-04 20:23 47.99699 10.23800 38004 ft 452 kts 340°
2026-05-04 20:24 48.05696 10.21103 37998 ft 454 kts 340°
2026-05-04 20:24 48.11762 10.18371 37999 ft 455 kts 340°
2026-05-04 20:25 48.17846 10.15626 37976 ft 456 kts 340°
2026-05-04 20:25 48.23926 10.12876 37977 ft 456 kts 340°
2026-05-04 20:26 48.30004 10.10121 37975 ft 456 kts 340°
2026-05-04 20:26 48.36057 10.07369 37973 ft 456 kts 340°
2026-05-04 20:27 48.42144 10.04595 37982 ft 456 kts 340°
2026-05-04 20:27 48.48211 10.01824 37986 ft 455 kts 340°
2026-05-04 20:28 48.54161 9.98766 37995 ft 450 kts 328°
2026-05-04 20:28 48.56734 9.96070 38004 ft 441 kts 313°
2026-05-04 20:28 48.58794 9.92681 37998 ft 435 kts 303°
2026-05-04 20:29 48.62318 9.85331 37995 ft 435 kts 302°
2026-05-04 20:29 48.65896 9.77880 38080 ft 430 kts 303°
2026-05-04 20:30 48.69436 9.70577 37991 ft 435 kts 302°
2026-05-04 20:30 48.73052 9.63140 37977 ft 440 kts 303°
2026-05-04 20:31 48.76695 9.55637 37979 ft 443 kts 302°
2026-05-04 20:31 48.80360 9.48069 37977 ft 445 kts 302°
2026-05-04 20:32 48.83412 9.41747 37970 ft 446 kts 302°
2026-05-04 20:32 48.86605 9.35120 37987 ft 441 kts 302°
2026-05-04 20:33 48.86727 9.34868 37989 ft 440 kts 302°
2026-05-04 20:33 48.90310 9.27414 37989 ft 434 kts 302°
2026-05-04 20:34 48.93849 9.20021 38005 ft 434 kts 302°
2026-05-04 20:34 48.97406 9.12570 37990 ft 435 kts 302°
2026-05-04 20:35 49.00965 9.05096 37977 ft 436 kts 302°
2026-05-04 20:35 49.04528 8.97593 37973 ft 437 kts 302°
2026-05-04 20:36 49.08096 8.90060 37975 ft 439 kts 302°
2026-05-04 20:36 49.11668 8.82496 37978 ft 440 kts 302°
2026-05-04 20:37 49.15236 8.74921 37974 ft 442 kts 302°
2026-05-04 20:37 49.18830 8.67268 37971 ft 444 kts 302°
2026-05-04 20:38 49.22430 8.59580 37993 ft 445 kts 302°
2026-05-04 20:38 49.26041 8.51848 38001 ft 446 kts 302°
2026-05-04 20:39 49.29651 8.44094 38001 ft 446 kts 302°
2026-05-04 20:39 49.33257 8.36327 37964 ft 446 kts 302°
2026-05-04 20:40 49.36847 8.28573 37964 ft 446 kts 302°
2026-05-04 20:40 49.40426 8.20819 37968 ft 445 kts 302°
2026-05-04 20:41 49.43997 8.13060 37966 ft 444 kts 301°
2026-05-04 20:41 49.47549 8.05320 38001 ft 443 kts 301°
2026-05-04 20:42 49.51092 7.97574 37998 ft 442 kts 301°
2026-05-04 20:42 49.54020 7.91158 37995 ft 442 kts 301°
2026-05-04 20:43 49.54398 7.90328 37996 ft 442 kts 301°
2026-05-04 20:43 49.57928 7.82570 37983 ft 442 kts 301°
2026-05-04 20:44 49.61431 7.74848 37992 ft 441 kts 301°
2026-05-04 20:44 49.64947 7.67074 37990 ft 442 kts 301°
2026-05-04 20:45 49.68463 7.59277 37988 ft 442 kts 301°
2026-05-04 20:45 49.71979 7.51458 37982 ft 443 kts 301°
2026-05-04 20:46 49.75495 7.43617 37985 ft 443 kts 301°
2026-05-04 20:46 49.79009 7.35756 37979 ft 444 kts 301°
2026-05-04 20:47 49.82520 7.27878 37983 ft 444 kts 301°
2026-05-04 20:47 49.86038 7.19961 37989 ft 445 kts 301°
2026-05-04 20:48 49.89541 7.12055 37981 ft 445 kts 301°
2026-05-04 20:48 49.93019 7.04180 38019 ft 445 kts 300°
2026-05-04 20:49 49.96540 6.96186 37991 ft 445 kts 300°
2026-05-04 20:49 50.00023 6.88254 38002 ft 445 kts 300°
2026-05-04 20:50 50.03505 6.80299 37999 ft 445 kts 300°
2026-05-04 20:50 50.06986 6.72325 37986 ft 444 kts 300°
2026-05-04 20:51 50.10431 6.64407 37983 ft 444 kts 300°
2026-05-04 20:51 50.13889 6.56434 37973 ft 443 kts 300°
2026-05-04 20:52 50.17344 6.48448 37954 ft 443 kts 300°
2026-05-04 20:52 50.19991 6.42234 37965 ft 442 kts 298°
2026-05-04 20:53 50.20462 6.41084 37963 ft 442 kts 298°
2026-05-04 20:53 50.23728 6.32889 37953 ft 441 kts 298°
2026-05-04 20:54 50.26958 6.24713 37966 ft 441 kts 297°
2026-05-04 20:54 50.30190 6.16565 37955 ft 441 kts 298°
2026-05-04 20:55 50.33428 6.08405 37956 ft 440 kts 298°
2026-05-04 20:55 50.36659 6.00244 37978 ft 440 kts 298°
2026-05-04 20:56 50.39879 5.92081 37964 ft 440 kts 298°
2026-05-04 20:56 50.43091 5.83913 37962 ft 440 kts 298°
2026-05-04 20:57 50.46283 5.75769 37958 ft 440 kts 297°
2026-05-04 20:57 50.49476 5.67602 38034 ft 435 kts 297°
2026-05-04 20:58 50.52691 5.59556 37979 ft 436 kts 301°
2026-05-04 20:58 50.56287 5.51755 37969 ft 443 kts 303°
2026-05-04 20:59 50.59968 5.43975 37954 ft 447 kts 303°
2026-05-04 20:59 50.63664 5.36043 37968 ft 449 kts 302°
2026-05-04 21:00 50.67336 5.28059 37950 ft 447 kts 302°
2026-05-04 21:00 50.70948 5.20161 37953 ft 440 kts 302°
2026-05-04 21:01 50.74511 5.12339 37972 ft 438 kts 302°
2026-05-04 21:01 50.78047 5.04554 37966 ft 437 kts 302°
2026-05-04 21:02 50.81020 4.97994 37962 ft 437 kts 302°
2026-05-04 21:02 50.84135 4.91101 37961 ft 438 kts 302°
2026-05-04 21:03 50.84328 4.90674 37961 ft 438 kts 302°
2026-05-04 21:03 50.87875 4.82803 37963 ft 440 kts 302°
2026-05-04 21:04 50.91430 4.74891 37966 ft 441 kts 302°
2026-05-04 21:04 50.94991 4.66942 37959 ft 443 kts 301°
2026-05-04 21:05 50.98558 4.58954 37966 ft 444 kts 301°
2026-05-04 21:05 51.02134 4.50922 37972 ft 446 kts 301°
2026-05-04 21:06 51.05719 4.42846 37968 ft 447 kts 301°
2026-05-04 21:06 51.09285 4.34786 37970 ft 448 kts 301°
2026-05-04 21:07 51.12890 4.26615 37962 ft 449 kts 301°
2026-05-04 21:07 51.16443 4.18531 37959 ft 448 kts 300°
2026-05-04 21:08 51.19655 4.10076 37974 ft 444 kts 295°
2026-05-04 21:08 51.22647 4.01466 37957 ft 443 kts 295°
2026-05-04 21:09 51.25664 3.92902 37962 ft 442 kts 296°
2026-05-04 21:09 51.28704 3.84375 37975 ft 441 kts 296°
2026-05-04 21:10 51.31737 3.75859 37976 ft 439 kts 296°
2026-05-04 21:10 51.34686 3.67530 37957 ft 423 kts 294°
2026-05-04 21:11 51.35854 3.63265 37966 ft 415 kts 282°
2026-05-04 21:11 51.36611 3.58825 37984 ft 412 kts 281°
2026-05-04 21:11 51.38095 3.50014 37983 ft 412 kts 282°
2026-05-04 21:12 51.39630 3.41148 37985 ft 413 kts 282°
2026-05-04 21:12 51.40925 3.33711 38014 ft 415 kts 282°
2026-05-04 21:13 51.41285 3.31638 38002 ft 416 kts 282°
2026-05-04 21:13 51.42837 3.22680 37998 ft 418 kts 282°
2026-05-04 21:14 51.44393 3.13661 38000 ft 420 kts 282°
2026-05-04 21:14 51.45926 3.04596 37910 ft 424 kts 281°
2026-05-04 21:15 51.46692 2.99931 37015 ft 436 kts 281°
2026-05-04 21:15 51.47452 2.95287 36360 ft 435 kts 281°
2026-05-04 21:15 51.48223 2.90576 35661 ft 438 kts 281°
2026-05-04 21:15 51.48996 2.85845 35013 ft 439 kts 280°
2026-05-04 21:16 51.49775 2.81075 34357 ft 440 kts 280°
2026-05-04 21:16 51.50551 2.76315 33656 ft 441 kts 280°
2026-05-04 21:16 51.51325 2.71551 32884 ft 441 kts 279°
2026-05-04 21:16 51.52100 2.66775 32153 ft 442 kts 279°
2026-05-04 21:17 51.52872 2.61997 31438 ft 442 kts 279°
2026-05-04 21:17 51.53642 2.57225 30730 ft 442 kts 279°
2026-05-04 21:17 51.54411 2.52436 30045 ft 442 kts 279°
2026-05-04 21:17 51.55232 2.47663 29247 ft 443 kts 283°
2026-05-04 21:18 51.56294 2.42997 28482 ft 444 kts 286°
2026-05-04 21:18 51.57406 2.38373 27744 ft 443 kts 287°
2026-05-04 21:18 51.58491 2.33757 27009 ft 441 kts 287°
2026-05-04 21:18 51.59551 2.29139 26291 ft 439 kts 287°
2026-05-04 21:19 51.60597 2.24528 25596 ft 437 kts 287°
2026-05-04 21:19 51.61634 2.19945 24904 ft 435 kts 287°
2026-05-04 21:19 51.62733 2.15421 24228 ft 434 kts 293°
2026-05-04 21:19 51.64408 2.11354 23550 ft 438 kts 310°
2026-05-04 21:20 51.66743 2.08087 22810 ft 439 kts 324°
2026-05-04 21:20 51.69370 2.05750 22268 ft 435 kts 331°
2026-05-04 21:20 51.72071 2.03579 21700 ft 429 kts 331°
2026-05-04 21:20 51.74713 2.01406 21152 ft 424 kts 330°
2026-05-04 21:21 51.77313 1.99223 20608 ft 418 kts 330°
2026-05-04 21:21 51.79879 1.97040 20088 ft 414 kts 330°
2026-05-04 21:21 51.82409 1.94875 19571 ft 409 kts 330°
2026-05-04 21:21 51.84921 1.92722 19071 ft 405 kts 330°
2026-05-04 21:22 51.87370 1.90623 18578 ft 401 kts 329°
2026-05-04 21:22 51.89671 1.88132 17996 ft 394 kts 313°
2026-05-04 21:22 51.91203 1.84538 17484 ft 385 kts 294°
2026-05-04 21:22 51.91877 1.82316 17180 ft 382 kts 294°
2026-05-04 21:23 51.91961 1.82041 17135 ft 382 kts 295°
2026-05-04 21:23 51.93184 1.78225 16579 ft 380 kts 296°
2026-05-04 21:23 51.94422 1.74458 16040 ft 377 kts 296°
2026-05-04 21:24 51.95655 1.70725 15504 ft 370 kts 296°
2026-05-04 21:24 51.96853 1.67099 14969 ft 359 kts 296°
2026-05-04 21:24 51.98013 1.63577 14451 ft 349 kts 296°
2026-05-04 21:24 51.99130 1.60180 13955 ft 340 kts 296°
2026-05-04 21:25 52.00231 1.56821 13402 ft 332 kts 296°
2026-05-04 21:25 52.01304 1.53543 12846 ft 326 kts 296°
2026-05-04 21:25 52.02358 1.50318 12299 ft 320 kts 296°
2026-05-04 21:25 52.03390 1.47153 11765 ft 314 kts 296°
2026-05-04 21:26 52.04405 1.44038 11244 ft 309 kts 296°
2026-05-04 21:26 52.05403 1.40969 10729 ft 305 kts 296°
2026-05-04 21:26 52.06389 1.37935 10221 ft 301 kts 296°
2026-05-04 21:26 52.07345 1.34991 9763 ft 296 kts 296°
2026-05-04 21:27 52.08309 1.32023 9394 ft 287 kts 296°
2026-05-04 21:27 52.09230 1.29178 9011 ft 280 kts 296°
2026-05-04 21:27 52.10134 1.26384 8646 ft 276 kts 296°
2026-05-04 21:27 52.11025 1.23628 8290 ft 275 kts 296°
2026-05-04 21:28 52.11643 1.20725 8059 ft 273 kts 271°
2026-05-04 21:28 52.11354 1.17655 8060 ft 276 kts 254°
2026-05-04 21:28 52.10848 1.14668 8054 ft 273 kts 254°
2026-05-04 21:28 52.10344 1.11676 8048 ft 274 kts 254°
2026-05-04 21:29 52.09838 1.08683 8041 ft 274 kts 254°
2026-05-04 21:29 52.09335 1.05694 8023 ft 274 kts 254°
2026-05-04 21:29 52.08827 1.02675 7559 ft 281 kts 255°
2026-05-04 21:29 52.08313 0.99612 7122 ft 278 kts 255°
2026-05-04 21:30 52.07808 0.96602 6684 ft 275 kts 255°
2026-05-04 21:30 52.07307 0.93618 6238 ft 271 kts 255°
2026-05-04 21:30 52.06814 0.90684 6056 ft 265 kts 255°
2026-05-04 21:30 52.06322 0.87757 6029 ft 270 kts 255°
2026-05-04 21:31 52.05338 0.81921 6001 ft 266 kts 255°
2026-05-04 21:31 52.04849 0.79021 6009 ft 267 kts 255°
2026-05-04 21:31 52.04364 0.76153 5998 ft 262 kts 255°
2026-05-04 21:32 52.03893 0.73380 5972 ft 246 kts 255°
2026-05-04 21:32 52.03453 0.70782 5981 ft 231 kts 255°
2026-05-04 21:32 52.03028 0.68276 6002 ft 230 kts 255°
2026-05-04 21:32 52.02601 0.65770 6001 ft 229 kts 255°
2026-05-04 21:33 52.02176 0.63276 5998 ft 229 kts 255°
2026-05-04 21:33 52.01752 0.60794 6004 ft 228 kts 255°
2026-05-04 21:33 52.01445 0.58288 5988 ft 227 kts 266°
2026-05-04 21:33 52.01374 0.55717 6003 ft 227 kts 266°
2026-05-04 21:34 52.01249 0.53167 6028 ft 224 kts 266°
2026-05-04 21:34 52.01115 0.50643 6007 ft 225 kts 266°
2026-05-04 21:34 52.00978 0.48092 6003 ft 228 kts 265°
2026-05-04 21:34 52.00849 0.45520 6007 ft 229 kts 266°
2026-05-04 21:35 52.00773 0.42941 5994 ft 228 kts 274°
2026-05-04 21:35 52.00984 0.40396 5948 ft 228 kts 269°
2026-05-04 21:35 52.00835 0.37831 5908 ft 228 kts 265°
2026-05-04 21:35 52.00659 0.35296 6191 ft 226 kts 261°
2026-05-04 21:36 52.00417 0.33572 6267 ft 240 kts 253°
2026-05-04 21:36 51.99734 0.31026 6069 ft 239 kts 245°
2026-05-04 21:36 51.99043 0.28627 6063 ft 237 kts 246°
2026-05-04 21:36 51.98349 0.26184 5931 ft 238 kts 246°
2026-05-04 21:37 51.97629 0.23805 5956 ft 233 kts 242°
2026-05-04 21:37 51.96826 0.21484 5966 ft 234 kts 241°
2026-05-04 21:37 51.96019 0.19191 5959 ft 234 kts 241°
2026-05-04 21:37 51.95112 0.16999 5956 ft 235 kts 228°
2026-05-04 21:38 51.93913 0.15138 5967 ft 236 kts 225°
2026-05-04 21:38 51.92751 0.13292 5797 ft 236 kts 226°
2026-05-04 21:38 51.91599 0.11441 5468 ft 230 kts 226°
2026-05-04 21:38 51.90465 0.09621 4923 ft 228 kts 226°
2026-05-04 21:39 51.89336 0.07812 4277 ft 230 kts 226°
2026-05-04 21:39 51.88196 0.05991 3649 ft 231 kts 225°
2026-05-04 21:39 51.87049 0.04152 3187 ft 230 kts 226°
2026-05-04 21:39 51.85863 0.02580 3011 ft 213 kts 205°
2026-05-04 21:40 51.84509 0.02021 3004 ft 193 kts 192°
2026-05-04 21:40 51.83197 0.01606 2983 ft 192 kts 181°
2026-05-04 21:40 51.81957 0.02290 2838 ft 193 kts 134°
2026-05-04 21:40 51.81427 0.04178 2724 ft 188 kts 88°
2026-05-04 21:41 51.81495 0.06274 2628 ft 188 kts 91°
2026-05-04 21:41 51.81384 0.08366 2492 ft 183 kts 92°
2026-05-04 21:41 51.81315 0.10372 2340 ft 176 kts 91°
2026-05-04 21:41 51.81323 0.12313 2187 ft 169 kts 76°
2026-05-04 21:42 51.81965 0.13827 2100 ft 170 kts 29°
2026-05-04 21:42 51.83037 0.14793 1762 ft 181 kts 39°
2026-05-04 21:42 51.83774 0.16308 1518 ft 165 kts 57°
2026-05-04 21:42 51.84486 0.17595 1344 ft 144 kts 38°
2026-05-04 21:43 51.85292 0.18657 1131 ft 148 kts 41°
2026-05-04 21:43 51.86057 0.19842 884 ft 146 kts 43°
2026-05-04 21:43 51.86801 0.20943 599 ft 144 kts 41°
2026-05-04 21:43 51.87543 0.22046 368 ft 139 kts 42°
2026-05-04 21:44 51.88204 0.23025 333 ft 107 kts 42°
2026-05-04 21:44 51.88588 0.23611 336 ft 44 kts 44°
2026-05-04 21:44 51.88764 0.23877 336 ft 33 kts 45°
2026-05-04 21:44 51.88870 0.24176 337 ft 29 kts 68°
2026-05-04 21:45 51.88913 0.24392 343 ft 0 kts 73°
2026-05-04 21:46 51.88913 0.24394 343 ft 2 kts 73°
2026-05-04 21:46 51.88920 0.24469 342 ft 11 kts 99°
2026-05-04 21:46 51.88856 0.24598 347 ft 20 kts 133°
2026-05-04 21:47 51.88844 0.24777 348 ft 19 kts 43°
2026-05-04 21:47 51.88939 0.24921 342 ft 18 kts 48°
2026-05-04 21:47 51.88910 0.25069 332 ft 17 kts 133°
2026-05-04 21:47 51.88874 0.25131 334 ft 0 kts 133°
2026-05-04 21:48 51.88861 0.25154 334 ft 1 kts 133°
2026-05-04 21:48 51.88855 0.25165 335 ft 2 kts 133°
2026-05-04 21:48 51.88849 0.25185 335 ft 3 kts 101°
2026-05-04 21:49 51.88885 0.25244 335 ft 10 kts 30°
2026-05-04 21:49 51.88915 0.25287 335 ft 0 kts 42°
2026-05-04 21:51 51.81298 0.11998 2200 ft 171 kts 82°
2026-05-04 21:51 51.81775 0.13615 2072 ft 170 kts 36°
2026-05-04 21:52 51.86899 0.21088 563 ft 144 kts 40°
2026-05-04 21:52 51.87757 0.22370 339 ft 136 kts 41°
2026-05-04 21:52 51.88416 0.23342 332 ft 79 kts 43°
2026-05-04 21:52 51.87834 0.22486 334 ft 133 kts 41°
2026-05-04 21:53 51.87414 0.21852 387 ft 141 kts 41°
2026-05-04 21:53 51.88077 0.22845 335 ft 120 kts 41°
2026-05-04 21:53 51.87013 0.21259 511 ft 152 kts 41°